OK1TBF-14 Weather Reports


time (UTC)temp
C
wind
direction
speed
KPH
gust
KPH
rain 1hr
cm
rain 24hr
cm
rain mn
cm
humidity
%
barometer
mb
20260504190003 19 149 11.3 17.7 0.00 0.00 0.00 46 1012.4
20260504183003 18 131 8.0 19.3 0.00 0.00 0.00 49 1012.1
20260504180024 19 132 4.8 8.0 0.00 0.00 0.00 52 1011.9
20260504173003 19 104 3.2 3.2 0.00 0.00 0.00 53 1012.0
20260504050003 12 132 9.7 19.3 0.00 0.00 0.00 51 1014.6
20260504043003 12 125 11.3 17.7 0.00 0.00 0.00 52 1014.4
20260504040004 12 127 11.3 25.7 0.00 0.00 0.00 51 1014.2
20260504033003 12 118 16.1 27.4 0.00 0.00 0.00 51 1014.1
20260504030024 12 116 12.9 24.1 0.00 0.00 0.00 49 1014.3
20260504023003 12 120 12.9 22.5 0.00 0.00 0.00 49 1014.2
20260504020003 12 125 12.9 25.7 0.00 0.00 0.00 47 1014.1
20260504013003 12 125 12.9 24.1 0.00 0.00 0.00 47 1014.3
20260504010024 13 127 14.5 25.7 0.00 0.00 0.00 46 1014.1
20260504003025 13 130 14.5 24.1 0.00 0.00 0.00 46 1014.2
20260504000003 13 121 14.5 24.1 0.00 0.00 0.00 45 1014.3
20260503233003 13 127 12.9 19.3 0.00 0.00 0.00 45 1014.6
20260503230004 13 123 12.9 20.9 0.00 0.00 0.00 45 1014.4
20260503223024 14 123 12.9 20.9 0.00 0.00 0.00 45 1014.7
20260503220024 14 128 14.5 24.1 0.00 0.00 0.00 46 1014.8
20260503213003 15 129 11.3 20.9 0.00 0.00 0.00 46 1015.0
20260503210003 15 120 11.3 17.7 0.00 0.00 0.00 44 1014.9
20260503203003 16 121 9.7 14.5 0.00 0.00 0.00 44 1015.1
20260503200003 16 121 11.3 20.9 0.00 0.00 0.00 44 1015.1
20260503193004 16 131 9.7 20.9 0.00 0.00 0.00 43 1015.0